FW9783 Weather Reports


time (UTC)temp
C
wind
direction
speed
KPH
gust
KPH
rain 1hr
cm
rain 24hr
cm
rain mn
cm
humidity
%
barometer
mb
20260505140304 11 75 0.0 20.9 0.00 0.00 0.00 50 1012.5
20260505140252 11 19 0.0 1.6 0.00 0.00 0.00 50 1016.9
20260505130303 11 303 0.0 14.5 0.00 0.00 0.00 53 1010.9
20260505130216 11 303 0.0 0.0 0.00 0.00 0.00 53 1015.1
20260505124803 11 82 0.0 8.0 0.00 0.00 0.00 53 1010.9
20260505124706 11 82 0.0 8.0 0.00 0.00 0.00 53 1015.1
20260505124304 11 55 0.0 9.7 0.00 0.00 0.00 54 1010.9
20260505124202 11 55 0.0 0.0 0.00 0.00 0.00 54 1015.1
20260505123804 11 201 0.0 9.7 0.00 0.00 0.00 53 1010.7
20260505123658 11 203 0.0 0.0 0.00 0.00 0.00 53 1014.9
20260505123304 11 262 0.0 9.7 0.00 0.00 0.00 53 1010.8
20260505123156 11 255 0.0 0.0 0.00 0.00 0.00 53 1015.0
20260505122804 11 218 0.0 12.9 0.00 0.00 0.00 53 1010.8
20260505122652 11 218 0.0 3.2 0.00 0.00 0.00 53 1015.0
20260505122305 11 47 1.6 12.9 0.00 0.00 0.00 53 1010.6
20260505122149 11 48 3.2 9.7 0.00 0.00 0.00 53 1014.8
20260505121804 12 61 1.6 12.9 0.00 0.00 0.00 53 1010.5
20260505121646 12 79 1.6 8.0 0.00 0.00 0.00 53 1014.7
20260505121143 12 7 0.0 0.0 0.00 0.00 0.00 53 1014.7
20260505120804 12 89 0.0 4.8 0.00 0.00 0.00 53 1010.2
20260505120639 12 204 0.0 0.0 0.00 0.00 0.00 53 1014.5
20260505120135 12 353 0.0 0.0 0.00 0.00 0.00 53 1014.1
20260505115629 12 259 0.0 0.0 0.00 0.00 0.00 53 1014.4
20260505115305 12 329 0.0 14.5 0.00 0.00 0.00 53 1010.2
20260505115127 12 292 0.0 0.0 0.00 0.00 0.00 53 1014.4
20260505114804 12 239 1.6 14.5 0.00 0.00 0.00 53 1010.0
20260505114624 12 328 4.8 14.5 0.00 0.00 0.00 53 1013.9
20260505114304 12 58 0.0 9.7 0.00 0.00 0.00 53 1009.8
20260505114120 12 57 0.0 0.0 0.00 0.00 0.00 53 1013.8
20260505113803 12 216 0.0 11.3 0.00 0.00 0.00 53 1009.9
20260505113617 12 207 0.0 9.7 0.00 0.00 0.00 53 1014.0
20260505113304 12 295 0.0 11.3 0.00 0.00 0.00 53 1009.7
20260505113114 12 347 0.0 4.8 0.00 0.00 0.00 53 1014.0
20260505112804 12 229 3.2 11.3 0.00 0.00 0.00 53 1010.1
20260505112610 12 180 4.8 11.3 0.00 0.00 0.00 53 1014.2
20260505112305 12 289 0.0 11.3 0.00 0.00 0.00 54 1009.9
20260505112109 12 206 0.0 1.6 0.00 0.00 0.00 54 1014.2
20260505111804 12 200 1.6 11.3 0.00 0.00 0.00 54 1009.9
20260505111607 12 76 1.6 3.2 0.00 0.00 0.00 54 1014.2
20260505111304 12 131 0.0 11.3 0.00 0.00 0.00 55 1009.9
20260505111103 12 31 0.0 11.3 0.00 0.00 0.00 55 1014.0
20260505110804 12 57 0.0 8.0 0.00 0.00 0.00 57 1009.7
20260505110600 13 325 0.0 8.0 0.00 0.00 0.00 57 1013.7
20260505102033 15 335 3.2 8.0 0.00 0.00 0.00 53 1013.6
20260505101804 15 124 1.6 24.1 0.00 0.00 0.00 53 1009.5
20260505101531 15 359 1.6 22.5 0.00 0.00 0.00 52 1013.6
20260505101027 15 328 6.4 24.1 0.00 0.00 0.00 51 1013.8
20260505100804 15 351 3.2 29.0 0.00 0.00 0.00 51 1009.5
20260505100524 15 285 4.8 14.5 0.00 0.00 0.00 50 1013.6
20260505100021 16 341 8.0 20.9 0.00 0.00 0.00 47 1013.3
20260505095804 16 1 9.7 37.0 0.00 0.00 0.00 44 1009.3
20260505095517 16 9 0.0 8.0 0.00 0.00 0.00 42 1013.2
20260505095305 16 338 1.6 37.0 0.00 0.00 0.00 40 1009.1
20260505095014 17 197 4.8 37.0 0.00 0.00 0.00 38 1012.8
20260505094803 17 350 3.2 20.9 0.00 0.00 0.00 36 1008.9
20260505094510 17 330 1.6 16.1 0.00 0.00 0.00 34 1013.0
20260505094304 17 354 1.6 20.9 0.00 0.00 0.00 33 1008.8
20260505094007 17 329 1.6 9.7 0.00 0.00 0.00 31 1012.6
20260505093804 18 325 3.2 20.9 0.00 0.00 0.00 30 1008.5
20260505093503 18 300 0.0 8.0 0.00 0.00 0.00 29 1012.3
20260505093000 18 22 0.0 12.9 0.00 0.00 0.00 26 1012.2
20260505092804 19 321 3.2 25.7 0.00 0.00 0.00 25 1008.3
20260505092458 20 356 0.0 4.8 0.00 0.00 0.00 24 1012.1
20260505091955 20 273 0.0 11.3 0.00 0.00 0.00 23 1012.1
20260505091804 20 295 0.0 33.8 0.00 0.00 0.00 23 1008.0
20260505091453 20 334 1.6 4.8 0.00 0.00 0.00 23 1011.8
20260505091304 20 33 0.0 33.8 0.00 0.00 0.00 23 1008.0
20260505090951 20 10 0.0 3.2 0.00 0.00 0.00 23 1011.7
20260505090448 20 310 3.2 8.0 0.00 0.00 0.00 24 1011.8
20260505090304 20 309 0.0 8.0 0.00 0.00 0.00 25 1007.7
20260505085945 20 327 0.0 0.0 0.00 0.00 0.00 25 1011.3
20260505085443 19 263 0.0 0.0 0.00 0.00 0.00 26 1011.4
20260505085305 19 237 0.0 14.5 0.00 0.00 0.00 26 1007.6
20260505084941 19 194 0.0 14.5 0.00 0.00 0.00 26 1011.2
20260505084439 20 206 0.0 4.8 0.00 0.00 0.00 26 1010.9
20260505083937 20 273 0.0 0.0 0.00 0.00 0.00 26 1011.1
20260505083803 19 126 0.0 1.6 0.00 0.00 0.00 26 1007.1
20260505083434 20 205 0.0 0.0 0.00 0.00 0.00 26 1011.0
20260505083303 20 267 0.0 11.3 0.00 0.00 0.00 26 1006.9
20260505082930 20 176 0.0 1.6 0.00 0.00 0.00 26 1010.7
20260505082804 20 139 0.0 11.3 0.00 0.00 0.00 26 1007.0
20260505082426 20 310 0.0 4.8 0.00 0.00 0.00 25 1010.6
20260505082304 20 299 0.0 11.3 0.00 0.00 0.00 25 1006.9
20260505081923 20 231 0.0 1.6 0.00 0.00 0.00 26 1010.8
20260505081804 20 211 0.0 8.0 0.00 0.00 0.00 26 1007.0
20260505081420 20 245 0.0 1.6 0.00 0.00 0.00 25 1010.8
20260505081304 20 261 1.6 8.0 0.00 0.00 0.00 25 1006.9
20260505080916 20 47 0.0 3.2 0.00 0.00 0.00 25 1010.9
20260505080803 20 227 0.0 3.2 0.00 0.00 0.00 25 1007.2
20260505080413 20 235 0.0 0.0 0.00 0.00 0.00 25 1010.8
20260505075908 20 260 0.0 0.0 0.00 0.00 0.00 25 1011.1
20260505075804 20 189 0.0 3.2 0.00 0.00 0.00 25 1007.3
20260505075405 20 272 0.0 3.2 0.00 0.00 0.00 25 1011.4
20260505075304 20 277 0.0 11.3 0.00 0.00 0.00 25 1007.4
20260505074903 20 259 0.0 1.6 0.00 0.00 0.00 25 1011.4
20260505074804 20 244 0.0 11.3 0.00 0.00 0.00 25 1007.3
20260505074400 20 171 0.0 1.6 0.00 0.00 0.00 25 1011.4
20260505074304 20 280 0.0 9.7 0.00 0.00 0.00 25 1007.3
20260505073857 20 198 0.0 0.0 0.00 0.00 0.00 25 1011.2
20260505073804 20 282 0.0 9.7 0.00 0.00 0.00 25 1007.3
20260505073355 20 216 0.0 0.0 0.00 0.00 0.00 25 1011.2
20260505073304 20 241 0.0 8.0 0.00 0.00 0.00 25 1007.3
20260505072852 20 169 0.0 1.6 0.00 0.00 0.00 25 1011.2
20260505072804 20 317 0.0 8.0 0.00 0.00 0.00 25 1007.4
20260505072348 20 249 0.0 0.0 0.00 0.00 0.00 25 1011.3
20260505072305 20 267 0.0 8.0 0.00 0.00 0.00 25 1007.5
20260505071844 20 263 0.0 0.0 0.00 0.00 0.00 24 1011.0
20260505071804 20 214 1.6 4.8 0.00 0.00 0.00 25 1007.3
20260505071340 20 220 0.0 1.6 0.00 0.00 0.00 25 1011.0
20260505071304 20 264 0.0 4.8 0.00 0.00 0.00 25 1007.2
20260505070839 21 236 0.0 0.0 0.00 0.00 0.00 24 1011.1
20260505070804 21 262 0.0 22.5 0.00 0.00 0.00 24 1007.3
20260505070335 21 226 0.0 0.0 0.00 0.00 0.00 24 1011.0
20260505070304 21 140 0.0 22.5 0.00 0.00 0.00 24 1007.4
20260505065830 21 261 1.6 22.5 0.00 0.00 0.00 24 1011.1
20260505065804 20 288 0.0 22.5 0.00 0.00 0.00 24 1007.5
20260505065327 20 259 0.0 1.6 0.00 0.00 0.00 24 1011.0
20260505065304 20 229 1.6 12.9 0.00 0.00 0.00 24 1007.5
20260505064824 21 212 0.0 4.8 0.00 0.00 0.00 24 1011.0
20260505064804 20 295 1.6 12.9 0.00 0.00 0.00 24 1007.2
20260505064321 20 7 0.0 4.8 0.00 0.00 0.00 24 1011.1
20260505064303 21 262 0.0 12.9 0.00 0.00 0.00 24 1007.4
20260505063819 21 243 0.0 1.6 0.00 0.00 0.00 24 1011.0
20260505063804 21 157 1.6 12.9 0.00 0.00 0.00 24 1007.3
20260505063315 21 301 0.0 1.6 0.00 0.00 0.00 24 1011.4
20260505063303 21 235 0.0 19.3 0.00 0.00 0.00 24 1007.3
20260505062811 21 277 0.0 8.0 0.00 0.00 0.00 24 1011.2
20260505062804 21 257 0.0 19.3 0.00 0.00 0.00 24 1007.5
20260505062309 21 190 0.0 0.0 0.00 0.00 0.00 24 1011.3
20260505062304 21 210 0.0 19.3 0.00 0.00 0.00 24 1007.7
20260505061806 21 283 1.6 3.2 0.00 0.00 0.00 24 1011.7
20260505061304 21 226 1.6 9.7 0.00 0.00 0.00 24 1011.3
20260505060803 21 248 0.0 16.1 0.00 0.00 0.00 24 1007.4
20260505060801 21 250 0.0 1.6 0.00 0.00 0.00 24 1011.2
20260505060304 21 230 0.0 22.5 0.00 0.00 0.00 24 1007.4
20260505060258 21 204 0.0 0.0 0.00 0.00 0.00 24 1011.3
20260505055803 21 196 0.0 22.5 0.00 0.00 0.00 24 1007.4
20260505055753 21 172 0.0 11.3 0.00 0.00 0.00 24 1011.3
20260505055304 21 167 1.6 22.5 0.00 0.00 0.00 24 1007.4
20260505055250 21 230 0.0 22.5 0.00 0.00 0.00 24 1011.4
20260505054803 21 217 0.0 22.5 0.00 0.00 0.00 24 1007.6
20260505054747 21 231 1.6 4.8 0.00 0.00 0.00 24 1011.3
20260505054303 21 219 0.0 22.5 0.00 0.00 0.00 24 1007.5
20260505054245 21 226 3.2 17.7 0.00 0.00 0.00 24 1011.1
20260505053803 21 236 1.6 22.5 0.00 0.00 0.00 23 1007.5
20260505053743 21 244 1.6 4.8 0.00 0.00 0.00 23 1011.6
20260505053303 21 233 1.6 35.4 0.00 0.00 0.00 23 1007.6
20260505053239 21 233 0.0 12.9 0.00 0.00 0.00 23 1011.4
20260505052804 21 275 0.0 35.4 0.00 0.00 0.00 23 1007.5
20260505052736 21 277 0.0 12.9 0.00 0.00 0.00 23 1011.3
20260505052304 21 247 3.2 35.4 0.00 0.00 0.00 23 1007.5
20260505052234 21 253 1.6 27.4 0.00 0.00 0.00 23 1011.2
20260505051804 21 228 1.6 12.9 0.00 0.00 0.00 23 1007.6
20260505051730 21 228 3.2 12.9 0.00 0.00 0.00 23 1011.4
20260505051304 21 260 0.0 16.1 0.00 0.00 0.00 23 1007.4
20260505051229 21 261 0.0 1.6 0.00 0.00 0.00 23 1011.2
20260505050806 21 175 1.6 16.1 0.00 0.00 0.00 23 1007.5
20260505050726 21 142 0.0 9.7 0.00 0.00 0.00 23 1011.3
20260505050304 21 266 1.6 25.7 0.00 0.00 0.00 23 1007.5
20260505050224 21 266 0.0 14.5 0.00 0.00 0.00 23 1011.3
20260505041654 22 235 1.6 35.4 0.00 0.00 0.00 23 1011.2
20260505041303 22 230 4.8 33.8 0.00 0.00 0.00 23 1007.4
20260505041151 22 230 3.2 33.8 0.00 0.00 0.00 23 1011.2
20260505040803 22 218 1.6 12.9 0.00 0.00 0.00 23 1007.6
20260505040648 22 214 1.6 11.3 0.00 0.00 0.00 23 1011.4
20260505040303 22 210 0.0 19.3 0.00 0.00 0.00 23 1007.8
20260505040146 22 202 0.0 3.2 0.00 0.00 0.00 23 1011.6
20260505035804 22 190 1.6 22.5 0.00 0.00 0.00 23 1007.7
20260505035642 22 198 3.2 11.3 0.00 0.00 0.00 23 1011.7
20260505035304 22 258 1.6 32.2 0.00 0.00 0.00 22 1007.6
20260505035138 22 300 3.2 17.7 0.00 0.00 0.00 22 1011.4
20260505034635 22 199 0.0 20.9 0.00 0.00 0.00 22 1011.4
20260505034304 23 249 4.8 32.2 0.00 0.00 0.00 21 1007.3
20260505034132 23 232 8.0 32.2 0.00 0.00 0.00 21 1011.3
20260505033804 23 231 4.8 27.4 0.00 0.00 0.00 21 1007.6
20260505033628 23 205 4.8 27.4 0.00 0.00 0.00 21 1011.3
20260505033304 23 250 3.2 29.0 0.00 0.00 0.00 20 1007.5
20260505033127 23 243 3.2 12.9 0.00 0.00 0.00 20 1011.4
20260505032804 23 207 1.6 32.2 0.00 0.00 0.00 20 1007.5
20260505032625 23 240 1.6 11.3 0.00 0.00 0.00 20 1011.2
20260505032304 23 301 8.0 32.2 0.00 0.00 0.00 19 1007.5
20260505032121 23 268 11.3 32.2 0.00 0.00 0.00 19 1011.2
20260505031804 23 269 4.8 25.7 0.00 0.00 0.00 19 1007.3
20260505031618 23 213 3.2 25.7 0.00 0.00 0.00 18 1011.2
20260505031114 23 230 9.7 22.5 0.00 0.00 0.00 18 1011.2
20260505030804 23 171 0.0 22.5 0.00 0.00 0.00 17 1007.5
20260505030611 23 225 0.0 22.5 0.00 0.00 0.00 17 1011.2
20260505030304 23 199 1.6 24.1 0.00 0.00 0.00 17 1007.2
20260505030107 23 176 0.0 11.3 0.00 0.00 0.00 17 1011.1
20260505025804 23 240 3.2 24.1 0.00 0.00 0.00 17 1007.3
20260505025603 23 243 3.2 11.3 0.00 0.00 0.00 17 1011.1
20260505025305 23 251 4.8 24.1 0.00 0.00 0.00 16 1007.2
20260505025102 23 197 3.2 16.1 0.00 0.00 0.00 16 1010.9
20260505024804 23 251 3.2 25.7 0.00 0.00 0.00 16 1007.3
20260505024559 23 294 0.0 14.5 0.00 0.00 0.00 16 1010.9
20260505024303 23 270 0.0 25.7 0.00 0.00 0.00 16 1007.2
20260505024056 24 239 0.0 14.5 0.00 0.00 0.00 16 1010.8
20260505023553 24 246 4.8 24.1 0.00 0.00 0.00 16 1011.0
20260505023050 24 221 3.2 25.7 0.00 0.00 0.00 16 1010.8
20260505022548 24 253 3.2 20.9 0.00 0.00 0.00 15 1010.7
20260505022304 24 221 1.6 25.7 0.00 0.00 0.00 15 1007.0
20260505022045 24 273 0.0 11.3 0.00 0.00 0.00 15 1010.6
20260505021804 24 218 1.6 25.7 0.00 0.00 0.00 15 1007.0
20260505021542 25 237 0.0 25.7 0.00 0.00 0.00 15 1010.9
20260505021304 25 298 3.2 25.7 0.00 0.00 0.00 15 1007.0
20260505021038 25 230 4.8 16.1 0.00 0.00 0.00 15 1010.8
20260505020804 25 282 3.2 20.9 0.00 0.00 0.00 15 1007.1
20260505020538 25 245 1.6 12.9 0.00 0.00 0.00 15 1010.8
20260505020304 25 260 3.2 20.9 0.00 0.00 0.00 15 1007.2
20260505020035 25 227 3.2 9.7 0.00 0.00 0.00 15 1010.8
20260505015803 25 209 1.6 22.5 0.00 0.00 0.00 15 1007.1
20260505015533 25 227 0.0 12.9 0.00 0.00 0.00 15 1010.8
20260505015304 25 180 1.6 27.4 0.00 0.00 0.00 14 1007.1
20260505015029 25 290 3.2 22.5 0.00 0.00 0.00 14 1010.8
20260505014804 25 339 1.6 27.4 0.00 0.00 0.00 14 1007.0
20260505014526 25 281 1.6 24.1 0.00 0.00 0.00 14 1010.9
20260505014304 25 226 3.2 29.0 0.00 0.00 0.00 14 1006.9
20260505014023 26 246 4.8 27.4 0.00 0.00 0.00 14 1010.8
20260505013804 26 243 3.2 32.2 0.00 0.00 0.00 14 1006.9
20260505013520 26 234 8.0 29.0 0.00 0.00 0.00 14 1010.6
20260505013304 26 230 6.4 32.2 0.00 0.00 0.00 14 1007.0
20260505013018 26 240 1.6 22.5 0.00 0.00 0.00 14 1010.7
20260505012804 26 250 6.4 22.5 0.00 0.00 0.00 14 1006.8
20260505012516 26 289 0.0 22.5 0.00 0.00 0.00 14 1010.6
20260505012013 26 254 4.8 16.1 0.00 0.00 0.00 14 1010.7
20260505011804 26 234 1.6 29.0 0.00 0.00 0.00 14 1006.7
20260505011508 26 232 0.0 17.7 0.00 0.00 0.00 14 1010.6
20260505011303 26 180 3.2 32.2 0.00 0.00 0.00 14 1006.8
20260505011005 26 266 1.6 14.5 0.00 0.00 0.00 14 1010.7
20260505010804 26 225 1.6 32.2 0.00 0.00 0.00 14 1006.8
20260505010501 26 219 8.0 29.0 0.00 0.00 0.00 13 1010.3
20260505010304 27 273 6.4 38.6 0.00 0.00 0.00 13 1006.8
20260505005957 27 275 1.6 12.9 0.00 0.00 0.00 13 1010.6
20260505005454 27 321 9.7 38.6 0.00 0.00 0.00 13 1010.8
20260505005304 27 254 8.0 37.0 0.00 0.00 0.00 13 1006.9
20260505004952 27 241 0.0 17.7 0.00 0.00 0.00 13 1010.4
20260505004803 27 173 1.6 33.8 0.00 0.00 0.00 13 1006.9
20260505004448 27 249 4.8 12.9 0.00 0.00 0.00 13 1010.7
20260505003945 27 308 0.0 24.1 0.00 0.00 0.00 13 1010.6
20260505003804 27 232 1.6 27.4 0.00 0.00 0.00 13 1007.0
20260505003442 27 250 0.0 16.1 0.00 0.00 0.00 13 1010.8
20260505003304 27 266 0.0 32.2 0.00 0.00 0.00 13 1007.0
20260505002938 27 274 0.0 9.7 0.00 0.00 0.00 13 1010.9
20260505002803 27 217 4.8 45.1 0.00 0.00 0.00 13 1006.9
20260505002435 28 287 9.7 27.4 0.00 0.00 0.00 13 1010.7
20260505002304 28 239 4.8 45.1 0.00 0.00 0.00 13 1007.0
20260505001933 28 206 12.9 29.0 0.00 0.00 0.00 13 1010.9
20260505001803 28 259 12.9 45.1 0.00 0.00 0.00 12 1007.0
20260505001430 28 250 1.6 29.0 0.00 0.00 0.00 13 1010.9
20260505001304 28 242 6.4 40.2 0.00 0.00 0.00 12 1007.2
20260505000927 28 240 8.0 40.2 0.00 0.00 0.00 12 1010.9
20260505000804 28 243 3.2 40.2 0.00 0.00 0.00 13 1006.8
20260505000427 28 162 6.4 37.0 0.00 0.00 0.00 12 1010.9
20260505000303 28 245 6.4 35.4 0.00 0.00 0.00 12 1006.9
20260504235922 28 248 4.8 24.1 0.00 0.00 0.00 12 1010.9
20260504235419 28 303 8.0 33.8 0.00 0.00 0.00 12 1010.8
20260504235304 28 231 1.6 33.8 0.00 0.00 0.00 12 1007.0
20260504234915 28 257 1.6 20.9 0.00 0.00 0.00 12 1011.0
20260504234804 28 205 3.2 32.2 0.00 0.00 0.00 12 1007.2
20260504234413 28 222 0.0 25.7 0.00 0.00 0.00 13 1010.7
20260504234304 28 270 1.6 32.2 0.00 0.00 0.00 13 1007.1
20260504233909 28 299 9.7 32.2 0.00 0.00 0.00 14 1010.6
20260504233405 28 216 3.2 29.0 0.00 0.00 0.00 17 1010.7
20260504233304 28 44 4.8 33.8 0.00 0.00 0.00 17 1007.0
20260504232902 28 270 1.6 24.1 0.00 0.00 0.00 18 1010.9
20260504232804 28 239 0.0 38.6 0.00 0.00 0.00 19 1007.1
20260504232359 28 268 0.0 8.0 0.00 0.00 0.00 19 1010.6
20260504232304 28 258 4.8 38.6 0.00 0.00 0.00 20 1007.2
20260504231856 28 279 6.4 29.0 0.00 0.00 0.00 19 1011.0
20260504231804 28 286 1.6 32.2 0.00 0.00 0.00 20 1006.9
20260504231352 28 260 1.6 4.8 0.00 0.00 0.00 19 1010.8
20260504231303 28 287 1.6 25.7 0.00 0.00 0.00 19 1007.0
20260504230848 28 235 6.4 25.7 0.00 0.00 0.00 19 1011.0
20260504230804 28 182 3.2 25.7 0.00 0.00 0.00 20 1007.2
20260504230346 28 250 4.8 17.7 0.00 0.00 0.00 20 1010.9
20260504225845 28 233 0.0 17.7 0.00 0.00 0.00 19 1011.1
20260504225804 29 240 1.6 29.0 0.00 0.00 0.00 19 1007.2
20260504225341 29 195 0.0 22.5 0.00 0.00 0.00 19 1010.9
20260504225304 29 254 4.8 29.0 0.00 0.00 0.00 19 1007.4
20260504224839 29 307 0.0 20.9 0.00 0.00 0.00 19 1011.1
20260504224804 29 273 1.6 29.0 0.00 0.00 0.00 19 1007.3
20260504224335 29 258 0.0 9.7 0.00 0.00 0.00 19 1011.1
20260504223832 29 268 9.7 29.0 0.00 0.00 0.00 18 1011.1
20260504223327 29 297 4.8 29.0 0.00 0.00 0.00 18 1011.1
20260504222824 29 221 3.2 14.5 0.00 0.00 0.00 18 1011.3
20260504222804 29 274 4.8 38.6 0.00 0.00 0.00 18 1007.5
20260504222321 30 223 4.8 38.6 0.00 0.00 0.00 18 1011.2
20260504222305 30 216 8.0 32.2 0.00 0.00 0.00 17 1007.4
20260504221820 30 302 4.8 22.5 0.00 0.00 0.00 16 1011.4
20260504221803 30 292 9.7 48.3 0.00 0.00 0.00 16 1007.7
20260504221316 30 275 1.6 17.7 0.00 0.00 0.00 16 1011.4
20260504221304 30 250 1.6 48.3 0.00 0.00 0.00 15 1007.5
20260504220813 30 326 0.0 48.3 0.00 0.00 0.00 16 1011.7
20260504220804 30 116 8.0 33.8 0.00 0.00 0.00 15 1007.9
20260504220310 30 329 9.7 27.4 0.00 0.00 0.00 15 1011.6
20260504215807 30 248 0.0 24.1 0.00 0.00 0.00 15 1011.8
20260504215804 30 186 1.6 49.9 0.00 0.00 0.00 16 1007.8
20260504215304 30 246 6.4 49.9 0.00 0.00 0.00 17 1011.6
20260504214804 30 235 9.7 35.4 0.00 0.00 0.00 18 1008.0
20260504214759 29 235 9.7 20.9 0.00 0.00 0.00 17 1011.7
20260504214304 30 256 1.6 37.0 0.00 0.00 0.00 17 1008.1
20260504214256 30 307 0.0 27.4 0.00 0.00 0.00 17 1011.9
20260504213804 29 264 4.8 37.0 0.00 0.00 0.00 17 1008.1
20260504213753 30 316 0.0 1.6 0.00 0.00 0.00 17 1012.0
20260504213249 30 178 3.2 17.7 0.00 0.00 0.00 17 1012.0
20260504212746 30 299 0.0 32.2 0.00 0.00 0.00 17 1012.1
20260504212242 30 356 1.6 49.9 0.00 0.00 0.00 17 1012.1
20260504211804 30 201 3.2 33.8 0.00 0.00 0.00 18 1008.0
20260504211740 30 201 6.4 22.5 0.00 0.00 0.00 18 1011.9
20260504211304 30 225 1.6 33.8 0.00 0.00 0.00 17 1008.8
20260504211236 30 224 3.2 25.7 0.00 0.00 0.00 17 1012.8
20260504210804 30 218 4.8 33.8 0.00 0.00 0.00 17 1008.4
20260504210734 30 218 8.0 33.8 0.00 0.00 0.00 17 1012.3
20260504210304 30 205 4.8 45.1 0.00 0.00 0.00 17 1008.3
20260504210231 30 205 8.0 20.9 0.00 0.00 0.00 17 1012.2
20260504205727 30 236 17.7 29.0 0.00 0.00 0.00 17 1012.6
20260504205304 30 323 3.2 45.1 0.00 0.00 0.00 16 1008.7
20260504205225 30 335 0.0 43.5 0.00 0.00 0.00 16 1012.7
20260504204804 29 242 11.3 41.8 0.00 0.00 0.00 18 1008.8
20260504204723 29 241 3.2 40.2 0.00 0.00 0.00 18 1012.8
20260504204304 29 274 6.4 61.2 0.00 0.00 0.00 18 1008.9
20260504204222 29 274 6.4 17.7 0.00 0.00 0.00 18 1012.9
20260504203721 30 284 14.5 37.0 0.00 0.00 0.00 18 1013.0
20260504203304 29 235 3.2 61.2 0.00 0.00 0.00 18 1008.8
20260504203218 29 235 3.2 32.2 0.00 0.00 0.00 18 1012.8
20260504202804 28 212 9.7 41.8 0.00 0.00 0.00 18 1008.9
20260504202717 28 212 6.4 29.0 0.00 0.00 0.00 18 1012.9
20260504202305 29 269 4.8 40.2 0.00 0.00 0.00 18 1009.0
20260504202215 29 270 4.8 32.2 0.00 0.00 0.00 18 1013.0
20260504201803 28 261 8.0 40.2 0.00 0.00 0.00 19 1008.9
20260504201712 28 261 8.0 29.0 0.00 0.00 0.00 19 1012.9
20260504201303 29 285 12.9 38.6 0.00 0.00 0.00 20 1009.1
20260504201209 29 287 14.5 38.6 0.00 0.00 0.00 20 1013.1
20260504200803 28 242 1.6 35.4 0.00 0.00 0.00 20 1009.1
20260504200707 28 240 1.6 35.4 0.00 0.00 0.00 20 1013.1
20260504200304 29 288 4.8 35.4 0.00 0.00 0.00 20 1009.3
20260504200202 29 288 4.8 20.9 0.00 0.00 0.00 20 1013.3
20260504195804 29 275 4.8 35.4 0.00 0.00 0.00 21 1009.3
20260504195659 29 277 6.4 24.1 0.00 0.00 0.00 21 1013.3
20260504195304 28 275 3.2 37.0 0.00 0.00 0.00 20 1009.5
20260504195155 28 278 4.8 35.4 0.00 0.00 0.00 20 1013.6
20260504194804 28 284 3.2 37.0 0.00 0.00 0.00 20 1009.5
20260504194652 28 284 1.6 29.0 0.00 0.00 0.00 20 1013.6
20260504194303 29 324 4.8 37.0 0.00 0.00 0.00 20 1009.4
20260504194148 29 326 4.8 27.4 0.00 0.00 0.00 20 1013.5
20260504193803 28 283 4.8 29.0 0.00 0.00 0.00 21 1009.5
20260504193644 28 284 9.7 29.0 0.00 0.00 0.00 21 1013.6
20260504193142 28 293 1.6 29.0 0.00 0.00 0.00 21 1013.6
20260504192804 28 206 0.0 29.0 0.00 0.00 0.00 22 1009.7
20260504192640 28 218 0.0 0.0 0.00 0.00 0.00 21 1014.0
20260504192304 28 257 1.6 29.0 0.00 0.00 0.00 21 1009.8
20260504192138 28 253 1.6 8.0 0.00 0.00 0.00 21 1013.8
20260504191803 28 329 3.2 29.0 0.00 0.00 0.00 21 1009.8
20260504191636 28 306 4.8 29.0 0.00 0.00 0.00 20 1014.0
20260504191132 28 288 8.0 29.0 0.00 0.00 0.00 20 1014.0
20260504190804 28 243 1.6 45.1 0.00 0.00 0.00 20 1009.8
20260504190628 28 341 0.0 8.0 0.00 0.00 0.00 21 1013.9
20260504190303 28 272 0.0 45.1 0.00 0.00 0.00 23 1009.9
20260504190125 28 265 0.0 25.7 0.00 0.00 0.00 22 1014.0
20260504185804 28 182 0.0 45.1 0.00 0.00 0.00 21 1010.2
20260504185621 28 201 0.0 43.5 0.00 0.00 0.00 21 1014.1
20260504185304 28 274 14.5 38.6 0.00 0.00 0.00 20 1010.1
20260504185118 28 205 14.5 37.0 0.00 0.00 0.00 19 1014.2
20260504184803 28 290 8.0 37.0 0.00 0.00 0.00 21 1010.0
20260504184614 28 298 12.9 20.9 0.00 0.00 0.00 21 1014.2
20260504184109 28 290 0.0 35.4 0.00 0.00 0.00 20 1014.2
20260504183804 28 312 11.3 45.1 0.00 0.00 0.00 21 1010.2
20260504183607 28 334 9.7 20.9 0.00 0.00 0.00 20 1014.7
20260504183305 28 331 8.0 45.1 0.00 0.00 0.00 21 1010.4
20260504183104 28 314 3.2 25.7 0.00 0.00 0.00 22 1014.6
20260504182804 28 311 1.6 38.6 0.00 0.00 0.00 22 1010.5
20260504182601 28 278 0.0 11.3 0.00 0.00 0.00 22 1014.5
20260504182304 28 214 4.8 38.6 0.00 0.00 0.00 22 1010.9
20260504182059 28 312 0.0 20.9 0.00 0.00 0.00 22 1014.8
20260504181555 28 308 11.3 38.6 0.00 0.00 0.00 21 1015.1
20260504181054 28 226 0.0 37.0 0.00 0.00 0.00 22 1015.0
20260504180804 28 283 3.2 27.4 0.00 0.00 0.00 20 1010.8
20260504180552 28 310 3.2 27.4 0.00 0.00 0.00 20 1015.0
20260504180303 28 265 1.6 27.4 0.00 0.00 0.00 22 1010.9
20260504180051 28 233 0.0 25.7 0.00 0.00 0.00 22 1015.2
20260504175804 28 313 6.4 33.8 0.00 0.00 0.00 22 1010.9
20260504175548 28 300 11.3 27.4 0.00 0.00 0.00 21 1015.4
20260504175304 28 324 3.2 33.8 0.00 0.00 0.00 22 1011.1
20260504175044 28 178 0.0 32.2 0.00 0.00 0.00 21 1015.1
20260504174804 27 291 8.0 35.4 0.00 0.00 0.00 21 1011.1
20260504174543 27 305 1.6 14.5 0.00 0.00 0.00 23 1015.1
20260504174304 28 200 4.8 35.4 0.00 0.00 0.00 22 1011.1
20260504174039 27 287 11.3 35.4 0.00 0.00 0.00 22 1015.4
20260504173804 27 2 6.4 32.2 0.00 0.00 0.00 22 1011.1
20260504173536 27 263 14.5 32.2 0.00 0.00 0.00 21 1015.6
20260504173033 28 327 0.0 29.0 0.00 0.00 0.00 23 1015.6
20260504172804 27 287 4.8 48.3 0.00 0.00 0.00 23 1011.4
20260504172529 27 320 3.2 24.1 0.00 0.00 0.00 22 1015.5
20260504172305 27 279 4.8 37.0 0.00 0.00 0.00 23 1011.4
20260504172026 27 295 16.1 35.4 0.00 0.00 0.00 22 1016.0
20260504171804 27 314 6.4 37.0 0.00 0.00 0.00 22 1011.5
20260504171523 27 314 11.3 37.0 0.00 0.00 0.00 23 1015.7
20260504171304 27 297 1.6 40.2 0.00 0.00 0.00 22 1011.5
20260504171020 27 280 16.1 37.0 0.00 0.00 0.00 22 1016.1
20260504170804 27 294 4.8 40.2 0.00 0.00 0.00 22 1011.4
20260504170516 28 301 0.0 40.2 0.00 0.00 0.00 22 1015.6
20260504170304 28 269 4.8 40.2 0.00 0.00 0.00 23 1011.7
20260504160436 26 278 1.6 8.0 0.00 0.00 0.00 25 1016.3
20260504160304 26 337 4.8 33.8 0.00 0.00 0.00 26 1011.9
20260504150859 23 160 11.3 25.7 0.00 0.00 0.00 33 1016.7
20260504150804 23 263 0.0 24.1 0.00 0.00 0.00 33 1012.3
20260504150356 23 271 0.0 22.5 0.00 0.00 0.00 33 1016.6
20260504150303 22 201 0.0 14.5 0.00 0.00 0.00 34 1012.0